Wind_Speed
62 62 64 65 64 61 58 66 68 68 70 67 64 60 61 60 57 63 68 69 69 68 70 71 69 71 72 73 71 67 67 65 65 65 65 64 61 62 63 63 63 59 59 58
59 65 65 64 64 64 63 62 68 73 71 70 69 61 61 64 57 61 67 71 72 69 70 72 71 71 71 70 70 69 68 66 66 65 64 62 63 63 64 62 59 59 56 56
45 61 68 68 66 69 68 66 69 67 71 74 74 66 65 66 63 59 66 71 72 72 70 72 71 69 68 68 68 68 68 67 66 64 63 64 64 64 62 60 58 57 55 54
48 49 56 69 72 69 74 74 74 73 71 69 66 66 65 68 66 68 66 69 72 71 72 73 73 69 65 66 69 67 67 66 65 64 65 65 63 61 60 58 58 56 54 52
51 55 55 58 65 74 74 77 78 80 77 73 68 67 65 69 71 76 71 67 69 71 73 73 73 71 69 69 67 66 67 66 65 65 64 64 61 60 60 58 56 54 54 52
48 53 61 63 62 63 71 79 78 82 80 74 77 73 67 68 77 78 74 70 67 71 73 76 72 71 70 69 69 66 67 68 66 66 65 65 62 61 60 58 56 55 54 53
49 52 56 63 71 69 66 69 77 82 80 76 78 78 71 79 76 79 79 73 69 70 74 76 78 73 73 71 71 70 68 68 68 66 66 65 62 61 59 58 57 56 54 53
58 59 58 62 67 74 76 73 71 73 78 81 78 74 76 81 85 84 82 80 75 68 74 77 78 77 75 75 72 71 70 70 69 67 67 65 65 61 59 57 57 56 54 53
67 64 66 67 68 71 73 81 80 75 72 71 74 80 82 82 81 83 82 83 77 75 69 78 80 79 77 76 75 72 73 72 71 69 68 66 64 59 60 59 58 55 55 53
72 70 69 71 74 75 75 76 82 84 78 72 68 70 81 87 83 82 83 85 83 77 72 73 79 81 79 76 76 76 73 74 74 71 67 65 63 59 58 59 58 56 56 54
77 74 72 72 75 79 79 79 81 82 82 78 72 69 72 75 85 87 86 86 85 82 78 74 77 81 82 80 78 78 76 73 76 75 71 67 64 62 60 60 57 57 57 55
74 71 68 70 74 78 82 82 82 82 78 81 80 73 73 74 76 87 91 88 86 86 83 82 79 80 79 82 79 80 77 76 75 75 77 75 71 66 63 62 59 60 61 57
73 69 66 67 73 75 78 84 85 86 85 79 84 76 79 77 73 79 92 94 91 89 89 86 82 80 81 80 81 79 78 75 73 73 77 78 76 71 70 66 65 64 62 60
73 69 68 67 74 74 75 83 86 87 84 82 79 78 87 83 83 85 83 92 97 93 91 90 88 82 83 83 83 84 81 77 76 72 73 73 74 75 73 70 67 64 66 65
72 71 72 70 70 75 72 75 84 84 83 81 77 80 88 93 92 87 85 86 95 98 94 91 93 89 85 86 84 84 83 81 76 74 70 73 76 76 73 70 70 66 66 65
73 73 75 67 71 71 71 70 77 83 82 80 81 83 85 92 95 92 92 86 89 96 99 94 93 95 90 86 88 87 85 84 80 75 73 73 74 71 67 69 71 67 66 64
76 74 73 65 75 72 60 74 76 78 82 80 78 81 87 85 97 98 98 94 89 91 98 99 95 95 96 90 85 88 89 87 83 80 74 75 75 71 70 67 68 65 64 65
75 75 75 64 74 73 67 75 75 78 79 83 77 81 81 87 92 102 103 101 94 91 93 100 100 97 97 96 91 86 86 88 89 87 82 79 74 71 69 69 67 68 68 66
75 76 78 73 72 64 64 69 78 80 74 80 80 76 79 84 88 102 107 106 102 94 93 95 102 101 98 98 96 90 84 85 85 85 87 84 80 78 75 72 72 70 68 65
76 80 76 71 70 60 61 73 84 80 68 77 80 81 79 79 87 94 110 111 108 102 95 95 96 102 102 101 98 95 90 84 84 87 85 84 82 79 78 79 76 70 69 68
76 82 74 67 64 57 60 73 82 70 73 80 75 79 79 75 79 91 101 113 112 109 101 94 96 98 104 103 99 98 95 89 86 85 91 90 87 84 80 75 72 72 73 72
75 75 70 63 59 55 61 67 71 70 76 70 71 74 76 74 78 86 97 106 115 112 107 99 94 96 98 104 101 98 96 94 92 88 84 81 84 87 87 84 81 79 77 76
66 66 65 59 54 55 59 61 63 64 65 69 66 70 75 77 77 85 92 101 110 116 112 104 96 96 96 97 102 102 99 96 94 90 85 81 77 78 82 81 80 78 77 78
60 65 56 55 49 54 59 55 58 59 59 65 69 71 71 76 77 80 88 97 104 113 115 109 101 95 96 95 95 102 102 99 96 94 88 85 81 77 76 79 82 80 78 78
62 54 52 42 46 52 44 46 49 51 57 64 69 71 71 72 78 80 86 96 102 107 115 114 106 100 93 94 93 94 100 101 98 95 91 89 86 83 80 76 78 80 81 79
51 43 40 40 43 42 43 42 46 50 55 59 63 66 70 70 74 79 87 92 99 105 111 116 110 102 97 90 92 90 92 95 99 98 95 92 90 88 84 81 78 77 78 77
Wind_Direction
234 236 237 241 244 246 241 237 235 234 234 236 236 235 237 237 237 235 233 233 231 231 231 231 230 231 232 234 234 234 235 237 240 243 245 248 250 251 251 254 258 259 263 266
239 238 239 238 241 242 241 238 236 233 233 234 236 235 236 237 235 235 234 233 230 230 230 230 229 229 229 230 232 234 236 237 239 242 244 247 247 248 249 254 257 260 262 266
246 242 240 241 240 238 239 239 238 234 237 236 236 235 234 239 234 235 234 232 231 229 229 230 228 228 229 229 232 232 233 234 237 239 242 243 245 246 250 255 257 260 263 264
254 249 246 242 241 239 238 238 238 237 236 237 236 233 236 238 238 236 236 232 232 229 227 230 228 227 228 228 228 228 230 232 235 237 239 241 243 246 251 255 257 260 262 265
255 252 253 250 245 241 241 241 240 239 238 236 236 235 235 236 239 238 234 234 231 231 227 226 228 227 227 227 229 230 231 232 235 237 239 241 243 246 251 254 256 258 261 266
264 256 250 251 251 247 243 241 242 241 241 237 237 236 231 236 238 238 236 233 231 229 229 226 225 226 225 226 228 230 232 233 234 237 240 242 241 244 250 252 255 258 259 264
262 262 254 253 248 249 248 245 242 241 241 238 237 238 233 235 236 241 237 232 230 229 228 227 226 226 226 226 228 228 230 231 233 236 240 241 241 247 250 252 253 257 259 262
268 262 258 254 251 248 246 248 246 243 241 239 237 236 236 236 236 236 239 234 231 228 229 228 227 227 226 226 228 229 230 231 232 236 240 242 243 244 249 251 253 257 259 262
269 263 257 256 254 249 247 245 246 246 243 240 238 235 235 236 235 234 234 238 233 228 229 229 226 227 228 226 227 229 231 232 233 235 239 243 244 245 249 250 252 255 259 262
275 270 264 256 255 253 248 246 245 244 243 241 238 236 235 234 234 234 233 234 234 229 227 229 228 227 228 227 226 228 230 233 233 235 238 242 245 247 250 250 252 255 259 262
277 271 268 263 255 253 252 247 245 245 241 240 237 236 237 231 232 233 233 232 233 232 226 227 227 228 228 227 228 227 229 232 235 234 235 238 241 244 247 248 251 253 257 259
275 270 267 264 259 252 249 249 248 246 242 239 235 232 236 236 230 230 231 231 230 230 228 225 226 226 227 228 228 229 229 231 234 237 238 239 241 243 245 247 248 251 255 258
275 270 265 263 261 257 252 250 248 246 242 239 235 228 233 234 235 232 231 231 230 229 227 225 225 225 226 228 228 228 231 230 236 237 239 239 242 242 244 245 247 250 256 256
276 272 269 265 263 261 254 252 250 249 245 238 237 228 229 232 232 233 230 230 229 229 228 225 224 224 224 228 230 229 228 230 232 235 239 239 240 241 244 249 248 254 256 258
278 275 272 268 261 259 256 253 254 252 248 243 233 231 227 226 231 233 232 231 230 228 228 226 224 224 225 224 228 231 231 230 232 233 234 239 242 244 246 247 249 253 257 260
274 273 271 267 263 257 254 254 251 252 248 244 238 232 228 224 225 230 234 230 231 229 227 226 226 224 225 226 226 229 231 232 232 233 235 238 240 242 244 247 250 254 257 261
276 273 270 267 266 259 254 253 250 248 249 243 238 234 232 223 223 225 231 230 229 229 228 227 226 226 225 227 227 228 231 232 232 233 235 238 240 242 244 247 248 252 254 256
278 275 271 263 259 259 256 253 252 248 245 247 239 236 229 227 220 223 226 232 228 228 228 227 226 225 226 226 227 228 229 233 234 235 235 236 239 241 244 246 247 250 253 257
277 273 270 267 262 257 255 254 251 249 243 244 243 236 230 225 222 220 223 228 231 227 228 228 226 226 226 227 227 228 229 230 233 236 238 238 238 240 241 242 244 247 250 252
278 274 269 267 264 259 253 250 250 247 242 242 239 238 231 224 220 221 221 224 228 229 226 227 227 226 226 227 226 227 229 231 232 233 235 237 239 240 241 243 245 246 247 249
271 272 273 270 267 259 253 250 250 249 244 241 238 236 233 223 218 219 222 222 225 229 227 226 228 227 226 226 227 227 228 230 232 233 235 237 239 240 242 242 243 245 248 251
270 270 273 270 266 261 253 249 251 245 243 242 238 236 233 227 216 217 221 223 223 226 228 226 226 228 228 227 227 228 229 230 232 233 235 238 240 243 244 245 248 250 253 255
270 271 268 269 265 261 253 246 245 243 241 238 234 233 231 228 219 215 219 223 223 223 226 227 225 227 228 229 227 228 228 229 231 233 236 238 239 241 242 242 245 248 248 251
272 270 272 266 261 257 253 250 244 240 235 233 229 228 227 224 222 216 215 221 224 223 224 226 225 225 228 228 229 228 228 230 231 233 235 238 239 240 242 242 243 245 247 250
269 270 270 272 261 259 258 253 248 242 236 230 226 223 224 221 218 216 214 217 221 223 223 224 224 225 226 227 228 230 229 230 231 233 234 236 238 241 243 245 245 246 249 252
277 281 281 277 268 262 257 244 240 235 232 230 227 223 222 220 216 214 215 215 218 222 223 223 223 223 225 226 227 228 231 231 231 233 235 236 238 240 242 244 244 245 247 249
Height
10396 10400 10405 10412 10414 10420 10426 10432 10437 10440 10444 10457 10468 10477 10477 10482 10491 10494 10499 10505 10513 10521 10524 10533 10543 10553 10563 10572 10580 10586 10592 10596 10602 10606 10611 10618 10624 10627 10629 10633 10636 10639 10641 10643
10385 10388 10392 10397 10402 10406 10409 10416 10422 10425 10432 10445 10451 10465 10468 10467 10478 10480 10485 10490 10496 10504 10511 10519 10528 10537 10549 10556 10564 10572 10578 10583 10587 10594 10600 10606 10610 10613 10617 10621 10625 10628 10630 10632
10371 10375 10378 10382 10386 10391 10396 10403 10404 10413 10417 10429 10438 10452 10453 10455 10464 10466 10467 10472 10482 10490 10499 10508 10517 10526 10534 10544 10551 10556 10561 10567 10574 10581 10589 10593 10596 10601 10605 10611 10613 10616 10619 10621
10359 10360 10361 10365 10369 10376 10380 10385 10390 10397 10402 10409 10424 10436 10443 10443 10449 10451 10449 10460 10466 10477 10486 10494 10504 10515 10524 10530 10534 10542 10549 10555 10563 10571 10574 10578 10585 10589 10594 10599 10602 10605 10608 10610
10346 10347 10348 10348 10352 10358 10364 10366 10373 10378 10386 10396 10409 10416 10429 10429 10430 10424 10438 10445 10456 10464 10472 10480 10490 10501 10510 10517 10525 10532 10538 10546 10553 10558 10561 10567 10575 10577 10582 10587 10591 10595 10598 10599
10331 10334 10333 10334 10336 10338 10343 10348 10353 10360 10367 10385 10385 10397 10413 10413 10404 10409 10421 10432 10441 10450 10459 10469 10478 10486 10495 10504 10511 10519 10527 10533 10541 10544 10548 10554 10561 10565 10571 10576 10581 10584 10587 10588
10316 10315 10318 10317 10317 10320 10325 10328 10332 10340 10348 10363 10370 10379 10400 10387 10392 10392 10402 10415 10425 10436 10445 10454 10463 10472 10481 10490 10497 10504 10512 10520 10525 10529 10534 10541 10549 10555 10561 10565 10569 10572 10575 10576
10299 10298 10300 10299 10298 10302 10303 10309 10314 10317 10327 10339 10350 10364 10368 10366 10371 10378 10383 10397 10410 10423 10430 10439 10449 10458 10466 10475 10483 10493 10500 10506 10512 10517 10521 10530 10538 10545 10549 10554 10558 10561 10563 10564
10276 10279 10280 10279 10278 10280 10286 10286 10290 10298 10308 10318 10330 10340 10343 10343 10351 10361 10372 10379 10393 10405 10415 10423 10433 10442 10451 10460 10469 10478 10485 10493 10499 10505 10512 10519 10526 10534 10538 10542 10545 10550 10552 10552
10254 10255 10258 10259 10258 10256 10259 10264 10267 10273 10286 10297 10309 10315 10315 10326 10339 10346 10354 10359 10371 10386 10401 10410 10418 10427 10436 10444 10454 10464 10472 10481 10484 10493 10501 10507 10514 10521 10525 10529 10533 10538 10540 10540
10229 10230 10234 10235 10232 10235 10237 10240 10242 10248 10264 10276 10291 10297 10297 10310 10317 10325 10333 10341 10353 10368 10384 10392 10401 10410 10419 10429 10437 10447 10458 10465 10473 10478 10485 10492 10498 10505 10510 10516 10521 10525 10527 10527
10202 10203 10208 10207 10204 10205 10211 10214 10220 10228 10242 10249 10265 10281 10282 10285 10297 10303 10309 10321 10333 10346 10361 10371 10382 10392 10403 10413 10423 10432 10441 10450 10457 10465 10472 10479 10485 10492 10497 10503 10508 10512 10514 10514
10176 10178 10183 10184 10179 10180 10187 10191 10194 10201 10209 10229 10230 10265 10263 10268 10279 10282 10286 10299 10312 10322 10333 10350 10364 10377 10388 10397 10406 10415 10425 10432 10441 10451 10457 10466 10472 10476 10481 10490 10496 10498 10501 10501
10147 10153 10156 10162 10156 10158 10163 10163 10167 10173 10185 10201 10215 10235 10237 10249 10251 10253 10267 10276 10287 10301 10314 10331 10345 10357 10368 10378 10387 10396 10405 10414 10424 10434 10442 10450 10455 10459 10468 10478 10482 10485 10487 10489
10124 10127 10126 10130 10133 10130 10138 10142 10140 10146 10160 10167 10202 10200 10210 10220 10224 10236 10245 10254 10265 10280 10293 10310 10323 10336 10346 10358 10367 10377 10387 10396 10406 10416 10426 10431 10436 10445 10456 10462 10465 10469 10473 10476
10101 10101 10094 10106 10100 10104 10113 10121 10118 10118 10127 10140 10159 10175 10180 10196 10208 10215 10220 10234 10243 10258 10273 10288 10303 10316 10328 10339 10351 10360 10369 10379 10388 10399 10407 10414 10421 10432 10440 10445 10449 10454 10458 10461
10071 10072 10073 10088 10071 10075 10099 10090 10092 10097 10100 10110 10128 10150 10154 10172 10184 10193 10195 10206 10222 10236 10249 10266 10282 10295 10308 10321 10333 10342 10352 10363 10373 10382 10390 10398 10407 10417 10423 10428 10435 10439 10442 10446
10047 10042 10040 10057 10047 10051 10071 10063 10069 10069 10077 10080 10102 10116 10133 10145 10159 10169 10175 10181 10200 10213 10226 10242 10259 10274 10288 10301 10312 10325 10337 10346 10356 10365 10374 10383 10392 10400 10406 10412 10417 10421 10425 10429
10018 10016 10012 10018 10020 10038 10048 10044 10034 10035 10058 10060 10072 10090 10105 10120 10138 10145 10153 10161 10174 10193 10205 10219 10235 10253 10267 10279 10293 10307 10320 10331 10341 10351 10359 10366 10373 10381 10388 10394 10398 10404 10409 10412
9990 9981 9984 9990 9990 10010 10021 10010 9998 10011 10038 10033 10045 10058 10075 10092 10108 10121 10128 10140 10151 10167 10184 10197 10211 10230 10244 10257 10274 10288 10300 10314 10325 10331 10337 10344 10353 10362 10370 10375 10383 10389 10393 10395
9966 9953 9953 9962 9966 9984 9993 9980 9968 9998 10007 10006 10026 10034 10047 10070 10087 10101 10106 10119 10129 10142 10162 10178 10191 10206 10221 10236 10254 10268 10282 10296 10300 10309 10317 10327 10337 10345 10352 10361 10369 10371 10375 10381
9936 9935 9936 9938 9944 9955 9953 9955 9955 9965 9968 9989 10004 10016 10027 10044 10063 10074 10083 10094 10108 10122 10137 10157 10173 10185 10199 10216 10234 10248 10263 10271 10282 10290 10301 10312 10322 10330 10337 10345 10350 10355 10360 10363
9918 9914 9914 9919 9926 9924 9922 9929 9934 9942 9955 9964 9980 9989 10001 10015 10035 10049 10061 10072 10086 10102 10115 10135 10155 10165 10179 10195 10213 10227 10239 10252 10263 10273 10285 10296 10305 10312 10319 10327 10332 10338 10342 10347
9899 9890 9900 9898 9906 9902 9901 9910 9916 9922 9932 9938 9952 9962 9975 9992 10009 10025 10041 10051 10064 10080 10096 10112 10133 10146 10160 10176 10191 10206 10219 10232 10246 10257 10270 10279 10286 10294 10301 10309 10316 10321 10324 10328
9874 9882 9884 9891 9886 9882 9895 9898 9902 9906 9910 9915 9924 9940 9953 9969 9985 10001 10017 10029 10043 10057 10075 10091 10111 10128 10142 10158 10173 10185 10199 10213 10226 10239 10251 10259 10268 10276 10283 10291 10296 10302 10307 10312
9867 9874 9874 9875 9871 9875 9875 9877 9877 9881 9888 9898 9910 9923 9935 9949 9965 9984 9996 10010 10024 10037 10053 10070 10090 10109 10125 10141 10156 10168 10180 10194 10207 10219 10231 10240 10250 10257 10265 10272 10278 10284 10289 10293